Hourly Data Report for October 28, 2016

All times are specified in Local Standard Time (LST). Add 1 hour to adjust for Daylight Saving Time where and when it is observed.

PETAWAWA AWOS 2
ONTARIO

45°57'00.000" N
77°19'00.000" W
130.10 m
6106396
71625
YWA

Download Data

Hourly Data (October 2016)
Hourly Data Report for October 28, 2016
Temp Definition
°C
Dew Point Temp Definition
°C
Rel Hum Definition
%
Wind Dir Definition
10's deg

Wind Spd Definition
km/h
Visibility Definition
km
Stn Press Definition
kPa
Hmdx Definition


Wind Chill Definition


Weather Definition


TIME
00:00 0.6 0.4 99 33 15 2.6 100.23     Freezing Rain
01:00 0.7 0.4 98 32 11 4.0 100.22     LegendNANA
02:00 0.9 0.4 96 31 11 14.5 100.24     LegendNANA
03:00 0.9 0.4 96 30 11 14.5 100.29     LegendNANA
04:00 0.9 0.3 96 30 13 14.5 100.36     LegendNANA
05:00 0.9 0.2 95 31 11 14.5 100.43     LegendNANA
06:00 1.0 0.2 94 30 13 14.5 100.49     LegendNANA
07:00 1.0 0.2 94 31 15 14.5 100.56     LegendNANA
08:00 1.1 0.2 94 30 15 14.5 100.67     LegendNANA
09:00 1.2 0.3 94 30 7 14.5 100.68     LegendNANA
10:00 1.4 0.4 93 29 9 14.5 100.74     LegendNANA
11:00 1.9 0.7 92 28 9 14.5 100.75     LegendNANA
12:00 2.6 0.7 87 29 11 14.5 100.73     LegendNANA
13:00 3.0 0.4 83 26 7 14.5 100.71     LegendNANA
14:00 3.5 1.5 87 28 6 14.5 100.70     LegendNANA
15:00 3.6 1.1 84 19 4 14.5 100.68     LegendNANA
16:00 3.7 0.4 79 16 4 14.5 100.64     LegendNANA
17:00 2.8 0.8 87 16 7 14.5 100.62     LegendNANA
18:00 1.7 0.8 94 18 9 14.5 100.63     LegendNANA
19:00 1.3 0.4 94 17 9 14.5 100.60     LegendNANA
20:00 1.7 0.3 90 14 13 14.5 100.49     LegendNANA
21:00 1.7 0.4 91 15 15 14.5 100.51     LegendNANA
22:00 1.4 0.3 92 15 9 14.5 100.54     LegendNANA
23:00 1.3 0.9 97 14 11 9.7 100.43     Heavy Rain

Notes on Data Quality.

Legend

  • E = Estimated
  • M = Missing
  • NA = Not Available
  • ‡ = Partner data that is not subject to review by the National Climate Archives
Date modified: